Погода в Арке

Погода в Арке : погода сейчас, прогноз погоды и архив. Всё, что Вы хотите узнать о погоде в Арке!

Хотите узнать прогноз погоды в Арке? Тогда Вам сюда: Погода в Арке

Поиск расширенной информации на нашем сайте:

Другие новости

Новости СМИ2

Главная страница сайта

Новости сайта

03.07.2017

Напоминаем, что на нашем специализированном сайте Метеоцентр.Азия вы можете получить высокодетализированные автоматические прогнозы погоды по пунктам России, СНГ и мира в авиационном формате (включающие направление и скорость ветра, видимость, явления погоды, количество и форму облачности, нижнюю и верхнюю границу облачности).

Рекомендуем: Раздолье электронная отчетность электронная отчетность.

Погода в Арке - сегодня

Время (UTC), дата Ветер
(°,м/с) 
Видим.   Явления Облачность Т
(°С)
Тd
(°С)
f(%) Тe
(°С)
Pmin
(гПа)
dP
(гПа)
Po
(мм)
O2
(г/м3)
Тmin Tmax R s Состояние
почвы
06 21.11.17 210 (ЮЗ) 20000 м  в посл. час снег  10/3 600 м верхняя 
[Sc|Cs]
-21.5 -24.4 77 -22  996.3  0.2  727  320           
09 21.11.17 тихо ()   20000 м    6/0 верхняя 
[Ci fib]
-26.2 -28.5 81 -26  997.4  0.6  728  326    -18.9  0.7     
12 21.11.17 тихо ()   20000 м    3/0 верхняя 
[Ci fib]
-28.9 -31.8 76 -29  998.2  0.5  728  330           
15 21.11.17 тихо ()   20000 м    3/0 верхняя 
[Ci fib]
-31 -34.1 74 -31  999.2  0.7  729  333           
18 21.11.17 тихо ()   20000 м    ясно 
-33 -36.3 72 -33  1000  0.6  729  336           
21 21.11.17 тихо ()   20000 м    ясно 
-35.4 -39.1 69 -35  1001.4  0.6  730  340  -35.4      25  равномерный
сухой снег
100% 
00 22.11.17 тихо ()   20000 м    8/0 средняя, верхняя 
[Ac trans|Ci fib]
-33.8 -37.3 71 -34  1002.5  1.3  731  338  -36         
03 22.11.17 320 (СЗ) н/о    н/о 
-27.6 -30.8 74 -28  1002.8  732  330           
06 22.11.17 тихо ()   20000 м    6/0 средняя, верхняя 
[Ac trans|Ci fib]
-30.1 -33.2 74 -30  1004.5  1.3  733  334           
09 22.11.17 тихо ()   20000 м    3/0 верхняя 
[Ci fib]
-33.1 -23.6 100 -33  1006.8  1.8  734  338    -24.3       
12 22.11.17 тихо ()   20000 м    ясно 
-35.5 -39.1 70 -36  1009  1.8  736  343           
15 22.11.17 тихо ()   20000 м    ясно 
-34.6 -38.2 70 -35  1010.5  1.6  737  342           
18 22.11.17 070 (В) 20000 м    ясно 
-36.8 -40.7 67 -38  1012.3  1.5  738  346           
21 22.11.17 тихо ()   20000 м    ясно 
-38.3 -42.3 66 -38  1013.9  1.4  739  348  -38.3      25  равномерный
сухой снег
100% 
00 23.11.17 тихо ()   20000 м    ясно 
-38 -42 66 -38  1015.5  1.5  740  348  -39.5         
03 23.11.17 тихо ()   20000 м    ясно 
-27.9 -31 75 -28  1013.7  -0.5  740  334           
06 23.11.17 290 (З) 20000 м    ясно 
-28.8 -32.3 72 -32  1014.6  0.7  740  335           
09 23.11.17 280 (З) 20000 м    ясно 
-31.8 -35.4 70 -36  1015.3  0.3  740  340    -25.7       
12 23.11.17 280 (З) 20000 м    ясно 
-29.8 -33.9 68 -35  1014.9  0.3  740  337           
15 23.11.17 270 (З) 20000 м    ясно 
-30.8 -34.8 68 -37  1013.9  -1.1  740  338           
18 23.11.17 270 (З) 20000 м    ясно 
-30.2 -34.6 65 -36  1012.6  -1.1  739  337           
21 23.11.17 290 (З) 20000 м    ясно 
-30.6 -35 65 -34  1010.4  -2.2  737  336  -34      25  равномерный
сухой снег
100% 
00 24.11.17 290 (З) 20000 м    ясно 
-32.8 -36.5 69 -39  1009.3  -1.3  736  339           
03 24.11.17 330 (СЗ) 20000 м    ясно 
-23.1 -30.7 50 -28  1004.4  -3.7  733  325           
06 24.11.17 330 (СЗ) 20000 м    ясно 
-23.1 -30.7 50 -28  1000.3  -3.9  730  323           
Время (UTC), дата Ветер
(°,м/с) 
Видим.   Явления Облачность Т
(°С)
Тd
(°С)
f(%) Тe
(°С)
Pmin
(гПа)
dP
(гПа)
Po
(мм)
O2
(г/м3)
Тmin Tmax R s Состояние
почвы

Для получения пояснительной информации подведите курсор к названию столбца.

ПОГОДА в Арке - архив

Всё, что Вы хотите узнать о погоде в Арке - удобно и подробно!

Выберите нужную дату (начиная с 1 января 2015* года) и нажмите кнопку "Найти".
Будут отображены архивные сводки погоды по пункту Арка, начиная с указанной даты.


Отображать данные в формате CSV (для использования в таблицах Excel)


Внимание! Наш архив погоды предназначен исключительно для личного некоммерческого использования в познавательных целях. Если Вам необходимы официальные справки о состоянии погоды (для производственных, юридических, коммерческих и т.п. целей), обращайтесь в органы Росгидромета.

*Примечание: данная дата относится к архиву по метеостанциям СССР (Россия, СНГ, Балтия).
Архив по метеостанциям Зарубежной Европы и Азии (кроме Китая) хранится 10 дней, по другим регионам земного шара (Китай, Африка, Америка, Австралия, Океания) - 1 день.

Арка - район местоположения метеостанции


Название, широта, долгота, высота метеостанции:
Арка 60.1°ш. 142.3°д. 198 м над ур. моря [Российская Федерация]

Дополнительная информация

В oтличие oт бoльшинства пoгoдных сайтoв мы публикуем пoдрoбную метеoинфoрмацию в детальнoм прoфессиoнальнoм фoрмате.

Характеристики температуры и влажнoсти вoздуха измеряются на высoте 2 м в тени вдали oт зданий и деревьев.
Скoрoсть ветра измеряется на высoте 10 м (на урoвне рoста челoвека скoрoсть ветра ниже в 1.5-2 раза). Если метеoстанция нахoдится в гoрoде или в лесу, тo скoрoсть ветра занижена на 2-4 м/с пo сравнению с oткрытым местoм. Скoрoсть ветра над акватoриями крупных рек и oзёр, а также на вершинах хoлмoв на 2-5 м/с выше, чем в oбычных услoвиях.
Атмoсфернoе давление в разных тoчках местнoсти мoжет значительнo oтличаться oт давления на метеoстанции, в зависимoсти oт услoвий рельефа (при пoдъёме на 10 м давление пoнижается примернo на 1 мм рт.ст.).